[[{"header":{"parameterUnit":"m.s-1","parameterCategory":1,"la1":30.2991,"la2":30.254,"lo1":-89.0895,"lo2":-89.0444,"dy":0.0017,"dx":0.0017,"nx":28,"ny":28,"refTime":"2023-07-27T09:00:00:Z","depth":0,"parameterNumber":2,"parameterNumberName":"U-component_of_WINDS"},"data":[0,0,0,0,0,0,0,0,0,0,0,0,0,0,0,0,0,0,0,0,0,0,0,0,0,0,0,0,0,0,0,0,0,0,0,0,0,0,0,0,0,0,0,0,0,0,0,0,0,0,0,0,0,0,0,0,0,0,0.2483,0.2483,0,0.2441,0.2441,0.2441,0.2392,0.2391,0.239,0.239,0.2348,0.2347,0.2347,0,0,0,0,0,0,0,0,0,0,0,0,0,0.2523,0.2522,0.2483,0.2483,0.2482,0.2442,0.2441,0.244,0.2392,0.2391,0.239,0.2389,0.2348,0.2347,0.2347,0,0,0,0,0,0,0,0,0,0,0,0,0,0.2496,0.2522,0.2483,0.2453,0.245,0.2442,0.2441,0.244,0.2392,0.2391,0.239,0.2389,0.2348,0.2347,0.2347,0.2365,0,0,0.2345,0.2344,0,0,0,0,0,0,0,0,0.2497,0.2494,0.2458,0.2455,0.2452,0.2421,0.2439,0.2415,0.2392,0.2414,0.239,0.2388,0.2373,0.237,0.2365,0.2363,0.2361,0.2345,0.2344,0.2344,0.2344,0,0,0,0,0,0,0,0.2499,0.2496,0.2467,0.2458,0.2454,0.2442,0.2437,0.2434,0.24,0.2412,0.2409,0.2404,0.2371,0.2365,0.2363,0.236,0.2345,0.2344,0.2344,0.2343,0.2373,0.2375,0,0,0,0,0,0,0.2506,0.2498,0.2468,0.2466,0.2472,0.2442,0.2437,0.2432,0.24,0.2394,0.2405,0.2402,0.2367,0.2364,0.2362,0.2383,0.2344,0.2343,0.2343,0.2372,0.2374,0.2375,0,0,0,0,0,0,0.2507,0.2503,0.247,0.2481,0.2475,0.2443,0.2438,0.2432,0.2426,0.2395,0.2389,0.2406,0.2366,0.2363,0.2365,0.2381,0.2343,0.2342,0.2371,0.2373,0.2374,0.2425,0,0,0,0,0,0,0.2508,0.2504,0.251,0.2481,0.2475,0.2474,0.2439,0.2432,0.2425,0.2421,0.2394,0.2388,0.2365,0.2366,0.2364,0.2379,0.2342,0.2369,0.2372,0.2374,0.2421,0.2428,0.2433,0,0,0,0,0,0.2509,0.2526,0.2511,0.2508,0.2482,0.2474,0.2471,0.2444,0.2426,0.2433,0.2413,0.2389,0.2379,0.2367,0.2364,0.2379,0.2368,0.2371,0.2374,0.2419,0.2427,0.2433,0,0,0,0,0,0,0.2558,0.2521,0.2504,0.2512,0.2497,0.2466,0.2474,0.2452,0.2442,0.2438,0.2405,0.2399,0.2406,0.2392,0.2379,0.2396,0.237,0.2372,0.2405,0.2412,0.2418,0.2423,0.2341,0,0,0,0,0,0.2569,0.2565,0.2534,0.2543,0.2537,0.2507,0.2502,0.2482,0.2465,0.2459,0.2439,0.2424,0.2417,0.2414,0.2405,0.2418,0.2413,0.2427,0.2433,0.2438,0.2442,0.245,0.2457,0.2384,0.2384,0.2384,0,0,0.2593,0.2572,0.2572,0.2553,0.2539,0.2537,0.2502,0.25,0.2499,0.2458,0.246,0.2445,0.2426,0.2434,0.2437,0.2423,0.246,0.2442,0.2446,0.2447,0.2453,0.246,0.2467,0.2386,0.2385,0.2385,0,0,0.2636,0.2619,0.2626,0.2613,0.2592,0.2572,0.2574,0.2547,0.2535,0.2536,0.2507,0.2504,0.2493,0.2481,0.2474,0.2513,0.2492,0.2511,0.2543,0.2552,0.2557,0.2562,0.2579,0.2585,0.2514,0.2514,0.2514,0,0.2668,0.2664,0.2632,0.2634,0.2627,0.259,0.2598,0.2586,0.2564,0.2561,0.2545,0.2531,0.2516,0.2522,0.2532,0.2526,0.2528,0.2515,0.2559,0.2564,0.2568,0.2583,0.2589,0.2517,0.2516,0.2516,0.2516,0,0.2706,0.2703,0.2711,0.2692,0.2685,0.2689,0.266,0.2657,0.2638,0.262,0.2622,0.2602,0.259,0.2589,0.257,0.2593,0.2586,0.2565,0.2539,0.2578,0.2592,0.2598,0.252,0.2519,0.2519,0.2518,0,0,0.2779,0.2742,0.2746,0.2738,0.2712,0.271,0.2713,0.2701,0.2701,0.2686,0.269,0.2681,0.2662,0.2654,0.2633,0.264,0.2675,0.2618,0.2617,0.2632,0.2703,0.2721,0.2728,0.266,0.2661,0.2661,0.2705,0,0.282,0.2823,0.2796,0.2807,0.2806,0.2771,0.2773,0.2759,0.2742,0.2738,0.2719,0.2715,0.2689,0.2684,0.2689,0.267,0.269,0.2666,0.2665,0.2665,0.2674,0.2735,0.2754,0.2796,0.271,0.2711,0.2712,0,0.2868,0.2857,0.2869,0.2844,0.2842,0.2845,0.2834,0.283,0.2813,0.28,0.2791,0.2767,0.277,0.2743,0.2747,0.2731,0.2729,0.2719,0.272,0.2722,0.2693,0.2741,0.2809,0.2817,0.272,0.2719,0.2719,0,0.2924,0.2912,0.2918,0.2911,0.2882,0.2885,0.2873,0.2855,0.285,0.284,0.2837,0.2826,0.2822,0.2814,0.2789,0.2771,0.2797,0.2767,0.2788,0.2789,0.2798,0.2798,0.287,0.2791,0.2791,0.2791,0.2791,0,0.2974,0.2983,0.2943,0.2947,0.2957,0.2925,0.2935,0.292,0.2904,0.2905,0.2873,0.2875,0.2839,0.2837,0.2817,0.2825,0.2822,0.2813,0.2808,0.2818,0.282,0.2818,0.2816,0.2792,0.2792,0.2792,0.2791,0,0.304,0.3013,0.3018,0.2989,0.2982,0.2991,0.2967,0.2971,0.2951,0.2953,0.2952,0.2922,0.2918,0.2891,0.2881,0.2867,0.2884,0.2871,0.289,0.2888,0.2911,0.2911,0.2987,0.2996,0.2909,0.291,0.2911,0,0.3075,0.3082,0.3054,0.3053,0.3042,0.304,0.3035,0.3004,0.3,0.2982,0.2988,0.2981,0.2975,0.297,0.2948,0.2941,0.293,0.2957,0.2929,0.2939,0.2934,0.2936,0.2937,0.2964,0.2965,0.2966,0.2967,0,0.3142,0.3128,0.3123,0.3113,0.3108,0.3099,0.3088,0.3088,0.3054,0.3052,0.3048,0.3043,0.3033,0.3028,0.3016,0.3004,0.2981,0.2976,0.2981,0.2992,0.3004,0.3001,0.291,0.2975,0.2974,0.2973,0.2973,0.2973,0.3195,0.32,0.3182,0.3178,0.3166,0.3156,0.3159,0.314,0.3135,0.3125,0.3106,0.3106,0.3089,0.3072,0.3062,0.3062,0.3048,0.3054,0.3056,0.3059,0.3066,0.3002,0.3059,0.3059,0.3058,0.3058,0.3058,0,0.3263,0.325,0.3245,0.3231,0.3228,0.3204,0.3191,0.319,0.319,0.3176,0.3171,0.3167,0.3162,0.3139,0.3132,0.3137,0.3126,0.3136,0.3137,0.3135,0.3077,0.3075,0.3145,0.3145,0.3145,0.3145,0.3145,0.3145,0.3298,0.3306,0.3291,0.3293,0.3279,0.3278,0.3273,0.3265,0.3254,0.3251,0.3247,0.3232,0.3215,0.3207,0.3202,0.3195,0.3196,0.321,0.3201,0.3147,0.3139,0.3131,0.3129,0.321,0.321,0.3259,0.326,0.326]},{"header":{"parameterUnit":"m.s-1","parameterCategory":1,"la1":30.2991,"la2":30.254,"lo1":-89.0895,"lo2":-89.0444,"dy":0.0017,"dx":0.0017,"nx":28,"ny":28,"refTime":"2023-07-27T09:00:00:Z","depth":0,"parameterNumber":3,"parameterNumberName":"V-component_of_WINDS"},"data":[0,0,0,0,0,0,0,0,0,0,0,0,0,0,0,0,0,0,0,0,0,0,0,0,0,0,0,0,0,0,0,0,0,0,0,0,0,0,0,0,0,0,0,0,0,0,0,0,0,0,0,0,0,0,0,0,0,0,-2.4146,-2.4146,0,-2.4189,-2.4189,-2.419,-2.417,-2.4169,-2.4167,-2.4166,-2.4209,-2.4212,-2.4214,0,0,0,0,0,0,0,0,0,0,0,0,0,-2.4044,-2.4046,-2.4146,-2.4146,-2.4147,-2.4189,-2.4189,-2.419,-2.417,-2.4169,-2.4167,-2.4166,-2.4209,-2.4211,-2.4214,0,0,0,0,0,0,0,0,0,0,0,0,0,-2.4088,-2.4046,-2.4145,-2.4142,-2.4142,-2.4189,-2.4189,-2.419,-2.417,-2.4168,-2.4167,-2.4165,-2.4208,-2.4211,-2.4214,-2.4267,0,0,-2.4224,-2.4226,0,0,0,0,0,0,0,0,-2.4085,-2.4091,-2.4142,-2.4142,-2.4142,-2.4172,-2.4169,-2.4216,-2.4171,-2.4159,-2.4166,-2.4165,-2.4198,-2.4202,-2.4214,-2.4269,-2.4271,-2.4224,-2.4226,-2.4228,-2.4229,0,0,0,0,0,0,0,-2.4082,-2.4089,-2.4163,-2.4142,-2.4143,-2.4137,-2.4142,-2.4178,-2.4187,-2.416,-2.4159,-2.4164,-2.4198,-2.4211,-2.4215,-2.4271,-2.4224,-2.4227,-2.4229,-2.423,-2.4371,-2.4373,0,0,0,0,0,0,-2.4079,-2.4087,-2.4161,-2.4164,-2.4109,-2.4141,-2.4145,-2.4164,-2.4187,-2.4189,-2.4166,-2.4163,-2.4206,-2.4211,-2.4216,-2.4279,-2.4228,-2.4231,-2.4233,-2.4369,-2.4372,-2.4373,0,0,0,0,0,0,-2.4077,-2.4086,-2.416,-2.4125,-2.4134,-2.4144,-2.4165,-2.4166,-2.4179,-2.4191,-2.4193,-2.4177,-2.4205,-2.4212,-2.4254,-2.428,-2.4232,-2.4235,-2.4367,-2.437,-2.4373,-2.4405,0,0,0,0,0,0,-2.4074,-2.4086,-2.4106,-2.4126,-2.4136,-2.4198,-2.4167,-2.4168,-2.4184,-2.4182,-2.4202,-2.4204,-2.4204,-2.425,-2.4258,-2.4284,-2.4238,-2.4365,-2.4368,-2.4372,-2.4401,-2.4408,-2.4414,0,0,0,0,0,-2.4071,-2.4113,-2.4107,-2.4116,-2.4162,-2.4199,-2.4205,-2.4205,-2.4187,-2.4207,-2.4215,-2.4203,-2.4276,-2.4254,-2.4263,-2.429,-2.4363,-2.4367,-2.4371,-2.4398,-2.4407,-2.4414,0,0,0,0,0,0,-2.4096,-2.4116,-2.4109,-2.4159,-2.4178,-2.4196,-2.4221,-2.4214,-2.4237,-2.4233,-2.4232,-2.4237,-2.4281,-2.429,-2.4265,-2.4342,-2.4317,-2.4323,-2.4334,-2.4342,-2.4349,-2.4345,-2.424,0,0,0,0,0,-2.4107,-2.4136,-2.4152,-2.4195,-2.4204,-2.4211,-2.4228,-2.4226,-2.4245,-2.4252,-2.4263,-2.4281,-2.4308,-2.4326,-2.4351,-2.4403,-2.4406,-2.4426,-2.4432,-2.4437,-2.4442,-2.4469,-2.4478,-2.4387,-2.4387,-2.4387,0,0,-2.4131,-2.4146,-2.4164,-2.42,-2.4214,-2.4244,-2.4218,-2.425,-2.4272,-2.4257,-2.4298,-2.4307,-2.4327,-2.4374,-2.4395,-2.4383,-2.4468,-2.4442,-2.4446,-2.4449,-2.4474,-2.4483,-2.449,-2.4389,-2.4389,-2.4389,0,0,-2.4189,-2.4203,-2.424,-2.4255,-2.4277,-2.4281,-2.429,-2.4309,-2.4314,-2.4356,-2.4345,-2.437,-2.4417,-2.4431,-2.4445,-2.4509,-2.4498,-2.4517,-2.4549,-2.4576,-2.4583,-2.4589,-2.4611,-2.4619,-2.4522,-2.4522,-2.4522,0,-2.4216,-2.426,-2.426,-2.4293,-2.4309,-2.4297,-2.4334,-2.4348,-2.4377,-2.4388,-2.4374,-2.4432,-2.4445,-2.4495,-2.451,-2.4522,-2.4531,-2.4514,-2.4582,-2.4588,-2.4594,-2.4615,-2.4623,-2.4524,-2.4524,-2.4524,-2.4524,0,-2.4291,-2.4322,-2.4349,-2.4378,-2.4397,-2.4431,-2.4436,-2.4455,-2.4452,-2.4458,-2.45,-2.4515,-2.4543,-2.4555,-2.4552,-2.4604,-2.4596,-2.4582,-2.4556,-2.4605,-2.4624,-2.4632,-2.4527,-2.4526,-2.4526,-2.4525,0,0,-2.4365,-2.4394,-2.4403,-2.4416,-2.4439,-2.4463,-2.4497,-2.4525,-2.4541,-2.4561,-2.4589,-2.4629,-2.4616,-2.4632,-2.463,-2.4654,-2.4702,-2.4637,-2.4637,-2.4648,-2.476,-2.4769,-2.4778,-2.4696,-2.4697,-2.4699,-2.4758,0,-2.4424,-2.4485,-2.4485,-2.454,-2.4568,-2.4558,-2.4587,-2.4605,-2.4611,-2.4635,-2.4642,-2.467,-2.4652,-2.4661,-2.4684,-2.4691,-2.4724,-2.4687,-2.4721,-2.4722,-2.4715,-2.4789,-2.4799,-2.4854,-2.4765,-2.4767,-2.4768,0,-2.4501,-2.4524,-2.4582,-2.4601,-2.4612,-2.4639,-2.4664,-2.4688,-2.4707,-2.471,-2.4727,-2.4723,-2.4757,-2.4731,-2.4777,-2.4752,-2.4766,-2.4772,-2.4774,-2.4776,-2.4747,-2.4792,-2.4871,-2.4879,-2.478,-2.4779,-2.4778,0,-2.4548,-2.4594,-2.4634,-2.4645,-2.4668,-2.4687,-2.4698,-2.4715,-2.4732,-2.4754,-2.4764,-2.479,-2.4804,-2.4824,-2.4825,-2.4807,-2.4872,-2.4847,-2.4875,-2.4875,-2.4888,-2.4887,-2.497,-2.4899,-2.4899,-2.4899,-2.4898,0,-2.4613,-2.4649,-2.4656,-2.468,-2.472,-2.472,-2.4759,-2.4768,-2.4783,-2.4809,-2.4802,-2.4826,-2.4827,-2.4852,-2.4854,-2.4892,-2.4898,-2.4901,-2.4901,-2.4901,-2.4901,-2.4909,-2.4905,-2.4901,-2.49,-2.49,-2.4899,0,-2.4672,-2.4678,-2.4721,-2.474,-2.4745,-2.4773,-2.4789,-2.4812,-2.4818,-2.4851,-2.4858,-2.4867,-2.4896,-2.49,-2.4934,-2.4935,-2.498,-2.4976,-2.4973,-2.4972,-2.5,-2.4997,-2.509,-2.5102,-2.5025,-2.5025,-2.5026,0,-2.4713,-2.474,-2.4762,-2.4778,-2.479,-2.4817,-2.4834,-2.4836,-2.4854,-2.4877,-2.4897,-2.4925,-2.4948,-2.4994,-2.5003,-2.5029,-2.5025,-2.5056,-2.5029,-2.5028,-2.5024,-2.5022,-2.5024,-2.5061,-2.5062,-2.5062,-2.5063,0,-2.4784,-2.4786,-2.4811,-2.4837,-2.4857,-2.4877,-2.4897,-2.4911,-2.4915,-2.4935,-2.4965,-2.4982,-2.5016,-2.5044,-2.5069,-2.5079,-2.5072,-2.5072,-2.5079,-2.5079,-2.5076,-2.5077,-2.4987,-2.5069,-2.5069,-2.5068,-2.5068,-2.5068,-2.4834,-2.4858,-2.4876,-2.4904,-2.4919,-2.4937,-2.496,-2.4968,-2.4993,-2.5021,-2.5021,-2.5053,-2.5071,-2.5104,-2.5116,-2.5141,-2.513,-2.5142,-2.5144,-2.5147,-2.5149,-2.5073,-2.5145,-2.5145,-2.5145,-2.5145,-2.5145,0,-2.4904,-2.4916,-2.4941,-2.4969,-2.499,-2.4982,-2.5003,-2.5021,-2.505,-2.5068,-2.509,-2.5123,-2.515,-2.5161,-2.5188,-2.5205,-2.5202,-2.5212,-2.521,-2.5212,-2.5157,-2.5148,-2.5214,-2.5214,-2.5214,-2.5214,-2.5214,-2.5214,-2.4943,-2.4982,-2.4986,-2.5032,-2.5043,-2.5074,-2.5087,-2.5103,-2.5117,-2.5155,-2.5177,-2.5185,-2.52,-2.5227,-2.5251,-2.5253,-2.5263,-2.5274,-2.5275,-2.5223,-2.5216,-2.5209,-2.52,-2.5276,-2.5276,-2.5328,-2.5328,-2.5328]}]]